TimeEST,TemperatureF,Dew PointF,Humidity,Sea Level PressureIn,VisibilityMPH,Wind Direction,Wind SpeedMPH,Gust SpeedMPH,PrecipitationIn,Events,Conditions,WindDirDegrees,DateUTC
12:15 AM,37.4,37.4,100,29.89,2.0,WSW,9.2,-,N/A,,Overcast,240,2012-12-09 05:15:00
12:35 AM,37.4,37.4,100,29.88,2.5,WSW,6.9,-,N/A,,Overcast,240,2012-12-09 05:35:00
12:55 AM,37.4,37.4,100,29.89,2.5,WSW,9.2,-,N/A,,Overcast,240,2012-12-09 05:55:00
1:15 AM,37.4,35.6,93,29.90,3.0,WSW,9.2,-,N/A,,Overcast,250,2012-12-09 06:15:00
1:35 AM,37.4,35.6,93,29.91,2.5,West,9.2,-,N/A,,Overcast,260,2012-12-09 06:35:00
1:55 AM,37.4,35.6,93,29.92,3.0,West,11.5,-,N/A,,Overcast,260,2012-12-09 06:55:00
2:15 AM,37.4,35.6,93,29.93,3.0,West,9.2,-,N/A,,Overcast,260,2012-12-09 07:15:00
2:35 AM,37.4,35.6,93,29.94,2.5,West,9.2,-,N/A,,Overcast,270,2012-12-09 07:35:00
2:55 AM,37.4,35.6,93,29.95,2.0,WNW,8.1,-,N/A,,Overcast,290,2012-12-09 07:55:00
3:15 AM,37.4,37.4,100,29.96,2.5,WNW,6.9,-,N/A,,Overcast,290,2012-12-09 08:15:00
3:35 AM,37.4,37.4,100,29.96,3.0,West,10.4,-,N/A,,Overcast,280,2012-12-09 08:35:00
3:55 AM,37.4,37.4,100,29.97,3.0,WNW,11.5,-,N/A,,Overcast,290,2012-12-09 08:55:00
4:15 AM,37.4,37.4,100,29.98,3.0,WNW,9.2,-,N/A,,Overcast,290,2012-12-09 09:15:00
4:35 AM,37.4,35.6,93,30.00,4.0,WNW,6.9,-,N/A,,Overcast,290,2012-12-09 09:35:00
4:55 AM,37.4,35.6,93,30.01,7.0,WNW,8.1,-,N/A,,Overcast,290,2012-12-09 09:55:00
5:15 AM,35.6,35.6,100,30.02,6.0,West,6.9,-,N/A,,Overcast,280,2012-12-09 10:15:00
5:35 AM,35.6,35.6,100,30.03,10.0,WNW,5.8,-,N/A,,Partly Cloudy,290,2012-12-09 10:35:00
5:55 AM,33.8,33.8,100,30.05,10.0,WNW,5.8,-,N/A,,Clear,300,2012-12-09 10:55:00
6:15 AM,35.6,33.8,93,30.06,10.0,WNW,6.9,-,N/A,,Clear,300,2012-12-09 11:15:00
6:35 AM,37.4,35.6,93,30.08,10.0,WNW,8.1,-,N/A,,Clear,300,2012-12-09 11:35:00
6:55 AM,37.4,33.8,87,30.09,10.0,NW,6.9,-,N/A,,Clear,310,2012-12-09 11:55:00
7:15 AM,37.4,33.8,87,30.10,10.0,NW,5.8,-,N/A,,Clear,310,2012-12-09 12:15:00
7:35 AM,37.4,33.8,87,30.12,10.0,NW,5.8,-,N/A,,Clear,310,2012-12-09 12:35:00
7:55 AM,37.4,33.8,87,30.14,10.0,WNW,4.6,-,N/A,,Clear,300,2012-12-09 12:55:00
8:15 AM,37.4,33.8,87,30.16,10.0,WNW,8.1,-,N/A,,Clear,300,2012-12-09 13:15:00
8:35 AM,39.2,35.6,87,30.17,10.0,NW,5.8,-,N/A,,Clear,310,2012-12-09 13:35:00
8:55 AM,39.2,35.6,87,30.18,10.0,WNW,8.1,-,N/A,,Clear,300,2012-12-09 13:55:00
9:15 AM,41.0,35.6,81,30.19,10.0,NW,8.1,-,N/A,,Clear,310,2012-12-09 14:15:00
9:35 AM,42.8,33.8,70,30.20,10.0,WNW,6.9,-,N/A,,Clear,290,2012-12-09 14:35:00
9:55 AM,42.8,33.8,70,30.20,10.0,NW,12.7,17.3,N/A,,Clear,310,2012-12-09 14:55:00
10:15 AM,42.8,32.0,66,30.21,10.0,WNW,5.8,-,N/A,,Clear,290,2012-12-09 15:15:00
10:35 AM,42.8,30.2,61,30.21,10.0,WNW,10.4,18.4,N/A,,Partly Cloudy,300,2012-12-09 15:35:00
10:55 AM,42.8,30.2,61,30.21,10.0,NW,9.2,-,N/A,,Scattered Clouds,310,2012-12-09 15:55:00
11:15 AM,44.6,30.2,57,30.21,10.0,NNW,5.8,-,N/A,,Scattered Clouds,330,2012-12-09 16:15:00
11:35 AM,42.8,30.2,61,30.20,10.0,NW,9.2,-,N/A,,Clear,320,2012-12-09 16:35:00
11:55 AM,44.6,30.2,57,30.20,10.0,WNW,8.1,-,N/A,,Clear,300,2012-12-09 16:55:00
12:15 PM,42.8,30.2,61,30.20,10.0,NNW,5.8,-,N/A,,Clear,330,2012-12-09 17:15:00
12:35 PM,44.6,28.4,53,30.20,10.0,NW,6.9,-,N/A,,Clear,310,2012-12-09 17:35:00
12:55 PM,44.6,28.4,53,30.20,10.0,WNW,9.2,-,N/A,,Clear,290,2012-12-09 17:55:00
1:15 PM,44.6,28.4,53,30.20,10.0,WNW,9.2,-,N/A,,Clear,290,2012-12-09 18:15:00
1:35 PM,44.6,28.4,53,30.20,10.0,NW,5.8,-,N/A,,Clear,320,2012-12-09 18:35:00
1:55 PM,44.6,28.4,53,30.21,10.0,NNW,4.6,-,N/A,,Clear,340,2012-12-09 18:55:00
2:15 PM,44.6,28.4,53,30.22,10.0,NW,3.5,-,N/A,,Clear,320,2012-12-09 19:15:00
2:35 PM,44.6,28.4,53,30.22,10.0,NNW,3.5,-,N/A,,Clear,330,2012-12-09 19:35:00
2:55 PM,44.6,28.4,53,30.23,10.0,NNE,3.5,-,N/A,,Clear,20,2012-12-09 19:55:00
3:15 PM,42.8,28.4,57,30.25,10.0,North,3.5,-,N/A,,Clear,360,2012-12-09 20:15:00
3:35 PM,42.8,26.6,53,30.26,10.0,NNW,3.5,-,N/A,,Clear,330,2012-12-09 20:35:00
3:55 PM,41.0,24.8,53,30.26,10.0,Calm,Calm,-,N/A,,Clear,0,2012-12-09 20:55:00
4:15 PM,39.2,26.6,61,30.28,10.0,Calm,Calm,-,N/A,,Clear,0,2012-12-09 21:15:00
4:35 PM,35.6,26.6,70,30.28,10.0,Calm,Calm,-,N/A,,Clear,0,2012-12-09 21:35:00
4:55 PM,33.8,28.4,81,30.29,10.0,Calm,Calm,-,N/A,,Clear,0,2012-12-09 21:55:00
5:15 PM,32.0,26.6,80,30.30,10.0,North,3.5,-,N/A,,Clear,360,2012-12-09 22:15:00
5:35 PM,35.6,30.2,81,30.31,10.0,Calm,Calm,-,N/A,,Clear,0,2012-12-09 22:35:00
5:55 PM,35.6,26.6,70,30.32,10.0,NNE,3.5,-,N/A,,Clear,20,2012-12-09 22:55:00
6:15 PM,30.2,26.6,86,30.31,10.0,NNE,3.5,-,N/A,,Clear,20,2012-12-09 23:15:00
6:35 PM,30.2,28.4,93,30.32,10.0,Calm,Calm,-,N/A,,Clear,0,2012-12-09 23:35:00
6:55 PM,30.2,28.4,93,30.32,10.0,Calm,Calm,-,N/A,,Clear,0,2012-12-09 23:55:00
7:15 PM,30.2,28.4,93,30.32,10.0,North,3.5,-,N/A,,Clear,360,2012-12-10 00:15:00
7:35 PM,35.6,26.6,70,30.33,10.0,NE,4.6,-,N/A,,Clear,40,2012-12-10 00:35:00
7:55 PM,35.6,28.4,75,30.32,10.0,NE,6.9,-,N/A,,Clear,40,2012-12-10 00:55:00
8:15 PM,35.6,26.6,70,30.31,10.0,NE,9.2,-,N/A,,Clear,40,2012-12-10 01:15:00
8:36 PM,35.6,26.6,70,30.31,10.0,NNE,6.9,-,N/A,,Clear,30,2012-12-10 01:36:00
9:15 PM,35.6,26.6,70,30.30,10.0,NNE,6.9,-,N/A,,Mostly Cloudy,30,2012-12-10 02:15:00
9:35 PM,35.6,26.6,70,30.30,10.0,NE,6.9,-,N/A,,Partly Cloudy,50,2012-12-10 02:35:00
9:55 PM,35.6,26.6,70,30.30,10.0,NE,9.2,-,N/A,,Clear,50,2012-12-10 02:55:00
10:15 PM,35.6,28.4,75,30.30,10.0,ENE,8.1,-,N/A,,Clear,60,2012-12-10 03:15:00
10:35 PM,35.6,26.6,70,30.29,10.0,NE,12.7,-,N/A,,Partly Cloudy,50,2012-12-10 03:35:00
10:55 PM,35.6,26.6,70,30.26,10.0,NE,12.7,17.3,N/A,,Partly Cloudy,50,2012-12-10 03:55:00
11:15 PM,35.6,26.6,70,30.26,10.0,ENE,12.7,16.1,N/A,,Mostly Cloudy,60,2012-12-10 04:15:00
11:35 PM,35.6,26.6,70,30.27,10.0,NE,6.9,-,N/A,,Mostly Cloudy,50,2012-12-10 04:35:00
11:55 PM,35.6,28.4,75,30.26,10.0,NE,6.9,-,N/A,,Overcast,50,2012-12-10 04:55:00